| time (UTC) | temp F | wind direction | speed knots | gust knots | rain 1hr in | rain 24hr in | rain mn in | humidity % | barometer mb |
| 20260903161004 | 76 | 254 | 0.9 | 4.3 | 0.00 | 0.00 | 0.56 | 91 | 1017.9 |
| 20260903160004 | 76 | 272 | 0.0 | 7.0 | 0.00 | 0.00 | 0.56 | 91 | 1018.2 |
| 20260903155005 | 76 | 294 | 0.9 | 9.6 | 0.00 | 0.00 | 0.56 | 91 | 1018.1 |
| 20260903154005 | 76 | 61 | 1.7 | 6.1 | 0.00 | 0.00 | 0.56 | 91 | 1017.9 |
| 20260903153005 | 76 | 251 | 0.0 | 6.1 | 0.00 | 0.00 | 0.56 | 91 | 1017.6 |
| 20260903152004 | 76 | 288 | 4.3 | 7.0 | 0.00 | 0.00 | 0.56 | 91 | 1017.9 |
| 20260903151004 | 76 | 76 | 3.5 | 5.2 | 0.00 | 0.00 | 0.56 | 91 | 1018.0 |
| 20260903150004 | 76 | 57 | 0.9 | 4.3 | 0.00 | 0.00 | 0.56 | 91 | 1017.5 |
| 20260903145004 | 76 | 94 | 1.7 | 5.2 | 0.00 | 0.00 | 0.56 | 91 | 1017.4 |
| 20260903144004 | 76 | 279 | 0.0 | 5.2 | 0.00 | 0.00 | 0.56 | 91 | 1017.1 |
| 20260903141004 | 75 | 46 | 1.7 | 5.2 | 0.00 | 0.00 | 0.56 | 91 | 1016.8 |
| 20260903140005 | 75 | 273 | 3.5 | 4.3 | 0.00 | 0.00 | 0.56 | 91 | 1016.7 |
| 20260903134004 | 74 | 87 | 1.7 | 6.1 | 0.00 | 0.00 | 0.56 | 91 | 1017.0 |
| 20260903133004 | 74 | 44 | 2.6 | 5.2 | 0.00 | 0.00 | 0.56 | 91 | 1017.1 |
| 20260903132005 | 73 | 124 | 0.0 | 4.3 | 0.00 | 0.00 | 0.56 | 91 | 1017.2 |
| 20260903131004 | 73 | 9 | 0.9 | 1.7 | 0.00 | 0.00 | 0.56 | 91 | 1017.1 |
| 20260903130005 | 72 | 9 | 0.0 | 3.5 | 0.00 | 0.00 | 0.56 | 91 | 1016.8 |
| 20260903124004 | 72 | 148 | 0.9 | 3.5 | 0.00 | 0.00 | 0.56 | 91 | 1017.2 |
| 20260903123004 | 72 | 130 | 1.7 | 4.3 | 0.00 | 0.00 | 0.56 | 91 | 1017.0 |
| 20260903122004 | 72 | 339 | 0.9 | 4.3 | 0.00 | 0.00 | 0.56 | 91 | 1017.0 |
| 20260903121005 | 72 | 9 | 0.0 | 3.5 | 0.00 | 0.00 | 0.56 | 91 | 1017.8 |
| 20260903114004 | 72 | 286 | 0.0 | 0.9 | 0.00 | 0.00 | 0.56 | 91 | 1019.3 |
| 20260903113005 | 72 | 101 | 0.0 | 0.0 | 0.00 | 0.00 | 0.56 | 91 | 1018.2 |
| 20260903112004 | 72 | 74 | 0.0 | 0.0 | 0.00 | 0.00 | 0.55 | 91 | 1019.3 |
| 20260903111004 | 72 | 302 | 0.0 | 5.2 | 0.00 | 0.00 | 0.53 | 91 | 1019.5 |
| 20260903110005 | 72 | 111 | 0.0 | 0.0 | 0.00 | 0.00 | 0.43 | 91 | 1018.9 |
| 20260903104005 | 72 | 113 | 0.0 | 0.0 | 0.00 | 0.00 | 0.43 | 90 | 1018.5 |
| 20260903103004 | 72 | 114 | 0.0 | 0.0 | 0.00 | 0.00 | 0.43 | 91 | 1018.5 |
| 20260903102004 | 72 | 103 | 0.0 | 0.0 | 0.00 | 0.00 | 0.43 | 91 | 1018.7 |
| 20260903101005 | 72 | 269 | 0.0 | 0.0 | 0.00 | 0.00 | 0.36 | 91 | 1019.4 |
| 20260903100004 | 72 | 269 | 0.0 | 0.0 | 0.00 | 0.00 | 0.29 | 91 | 1019.1 |
| 20260903094004 | 72 | 269 | 0.0 | 0.0 | 0.00 | 0.00 | 0.28 | 91 | 1018.6 |
| 20260903093005 | 72 | 269 | 0.0 | 0.0 | 0.00 | 0.00 | 0.28 | 91 | 1019.2 |
| 20260903092004 | 72 | 269 | 0.0 | 0.0 | 0.00 | 0.00 | 0.27 | 91 | 1019.2 |
| 20260903090005 | 72 | 355 | 0.0 | 4.3 | 0.00 | 0.00 | 0.25 | 90 | 1019.5 |
| 20260903085005 | 72 | 101 | 0.0 | 0.0 | 0.00 | 0.00 | 0.25 | 90 | 1019.7 |
| 20260903083005 | 72 | 103 | 0.0 | 0.0 | 0.00 | 0.00 | 0.25 | 90 | 1018.5 |
| 20260903082004 | 72 | 101 | 0.0 | 0.0 | 0.00 | 0.00 | 0.25 | 90 | 1018.4 |
| 20260903081005 | 72 | 101 | 0.0 | 0.0 | 0.00 | 0.00 | 0.25 | 90 | 1018.2 |
| 20260903080004 | 72 | 102 | 0.0 | 0.0 | 0.00 | 0.00 | 0.25 | 90 | 1018.4 |
| 20260903075005 | 72 | 101 | 0.0 | 0.0 | 0.00 | 0.00 | 0.25 | 90 | 1018.3 |
| 20260903074004 | 72 | 100 | 0.0 | 0.0 | 0.00 | 0.00 | 0.25 | 90 | 1018.4 |
| 20260903073003 | 72 | 98 | 0.0 | 0.0 | 0.00 | 0.00 | 0.25 | 90 | 1018.3 |
| 20260903072004 | 72 | 97 | 0.0 | 0.0 | 0.00 | 0.00 | 0.25 | 90 | 1018.1 |
| 20260903071003 | 72 | 96 | 0.0 | 0.0 | 0.00 | 0.00 | 0.25 | 90 | 1018.2 |
| 20260903065004 | 72 | 96 | 0.0 | 0.9 | 0.00 | 0.00 | 0.25 | 90 | 1018.2 |
| 20260903063004 | 72 | 95 | 0.0 | 0.9 | 0.00 | 0.00 | 0.25 | 90 | 1018.7 |
| 20260903062004 | 72 | 94 | 0.9 | 4.3 | 0.00 | 0.00 | 0.21 | 90 | 1018.8 |
| 20260903061004 | 73 | 238 | 4.3 | 4.3 | 0.00 | 0.00 | 0.18 | 90 | 1019.1 |
| 20260903060004 | 73 | 169 | 0.9 | 1.7 | 0.00 | 0.00 | 0.17 | 90 | 1019.5 |
| 20260903055004 | 73 | 205 | 0.0 | 0.9 | 0.00 | 0.00 | 0.17 | 90 | 1018.6 |
| 20260903053003 | 73 | 197 | 0.0 | 3.5 | 0.00 | 0.00 | 0.16 | 90 | 1018.7 |
| 20260903051004 | 73 | 105 | 0.0 | 0.0 | 0.00 | 0.00 | 0.00 | 90 | 1018.3 |
| 20260903050003 | 73 | 105 | 0.0 | 0.0 | 0.00 | 0.00 | 0.00 | 90 | 1018.5 |
| 20260903045004 | 73 | 105 | 0.0 | 0.0 | 0.00 | 0.00 | 0.00 | 90 | 1018.3 |
| 20260903044005 | 73 | 105 | 0.0 | 0.0 | 0.00 | 0.00 | 0.00 | 90 | 1018.5 |
| 20260903043004 | 73 | 105 | 0.0 | 0.0 | 0.00 | 0.00 | 0.00 | 90 | 1018.5 |
| 20260903042004 | 73 | 103 | 0.0 | 0.0 | 0.00 | 0.00 | 0.00 | 90 | 1018.5 |
| 20260903041004 | 73 | 99 | 0.0 | 0.0 | 0.00 | 0.00 | 0.00 | 90 | 1019.0 |
| 20260903040004 | 73 | 99 | 0.0 | 0.0 | 0.00 | 0.00 | 0.63 | 90 | 1019.2 |
| 20260903031004 | 73 | 98 | 0.0 | 0.0 | 0.00 | 0.00 | 0.63 | 90 | 1019.7 |
| 20260903030004 | 73 | 98 | 0.0 | 0.0 | 0.00 | 0.00 | 0.63 | 90 | 1019.4 |
| 20260903025005 | 73 | 98 | 0.0 | 0.0 | 0.00 | 0.00 | 0.63 | 90 | 1019.5 |
| 20260903024004 | 73 | 98 | 0.0 | 0.0 | 0.00 | 0.00 | 0.63 | 90 | 1019.4 |
| 20260903023005 | 73 | 98 | 0.0 | 1.7 | 0.00 | 0.00 | 0.63 | 90 | 1019.2 |
| 20260903022005 | 73 | 101 | 0.9 | 4.3 | 0.00 | 0.00 | 0.63 | 90 | 1018.7 |
| 20260903020004 | 74 | 127 | 0.9 | 6.1 | 0.00 | 0.00 | 0.63 | 90 | 1019.3 |
| 20260903014004 | 74 | 130 | 0.0 | 0.0 | 0.00 | 0.00 | 0.63 | 90 | 1019.4 |
| 20260903013005 | 74 | 131 | 0.0 | 0.0 | 0.00 | 0.00 | 0.63 | 90 | 1019.1 |
| 20260903012004 | 74 | 130 | 0.0 | 0.0 | 0.00 | 0.00 | 0.63 | 90 | 1018.9 |
| 20260903011004 | 74 | 130 | 0.0 | 0.0 | 0.00 | 0.00 | 0.63 | 90 | 1018.9 |
| 20260903010004 | 74 | 130 | 0.0 | 0.0 | 0.00 | 0.00 | 0.63 | 90 | 1018.8 |
| 20260903005004 | 74 | 130 | 0.0 | 0.0 | 0.00 | 0.00 | 0.63 | 90 | 1018.9 |
| 20260903004005 | 74 | 130 | 0.0 | 0.0 | 0.00 | 0.00 | 0.63 | 90 | 1018.9 |
| 20260903003004 | 74 | 130 | 0.0 | 0.0 | 0.00 | 0.00 | 0.63 | 90 | 1019.0 |
| 20260903001004 | 74 | 131 | 0.0 | 0.0 | 0.00 | 0.00 | 0.63 | 90 | 1018.7 |
| 20260903000005 | 75 | 131 | 0.0 | 0.0 | 0.00 | 0.00 | 0.63 | 90 | 1018.7 |
| 20260902235004 | 75 | 131 | 0.0 | 0.0 | 0.00 | 0.00 | 0.63 | 90 | 1018.7 |
| 20260902234004 | 75 | 131 | 0.0 | 0.0 | 0.00 | 0.00 | 0.63 | 90 | 1018.7 |
| 20260902233004 | 75 | 131 | 0.0 | 0.0 | 0.00 | 0.00 | 0.63 | 90 | 1018.7 |
| 20260902232004 | 75 | 131 | 0.0 | 0.0 | 0.00 | 0.00 | 0.63 | 90 | 1018.6 |
| 20260902231005 | 75 | 131 | 0.0 | 0.0 | 0.00 | 0.00 | 0.63 | 90 | 1018.7 |
| 20260902230004 | 76 | 141 | 0.0 | 0.0 | 0.00 | 0.00 | 0.63 | 90 | 1018.7 |
| 20260902225004 | 76 | 141 | 0.0 | 0.0 | 0.00 | 0.00 | 0.63 | 90 | 1018.7 |
| 20260902224004 | 76 | 141 | 0.0 | 0.0 | 0.00 | 0.00 | 0.63 | 90 | 1018.7 |
| 20260902223005 | 76 | 141 | 0.0 | 0.0 | 0.00 | 0.00 | 0.63 | 90 | 1018.9 |
| 20260902222004 | 75 | 141 | 0.0 | 0.0 | 0.00 | 0.00 | 0.63 | 90 | 1019.1 |
| 20260902221005 | 75 | 141 | 0.0 | 0.0 | 0.00 | 0.00 | 0.63 | 90 | 1019.2 |
| 20260902220004 | 75 | 141 | 0.0 | 0.0 | 0.00 | 0.00 | 0.63 | 90 | 1019.4 |
| 20260902214004 | 75 | 143 | 0.0 | 1.7 | 0.00 | 0.00 | 0.63 | 90 | 1019.2 |
| 20260902213004 | 75 | 137 | 0.0 | 1.7 | 0.00 | 0.00 | 0.63 | 90 | 1019.1 |
| 20260902211005 | 75 | 179 | 0.0 | 1.7 | 0.00 | 0.00 | 0.63 | 90 | 1019.1 |
| 20260902210005 | 75 | 180 | 0.0 | 0.0 | 0.00 | 0.00 | 0.63 | 90 | 1019.2 |
| 20260902205004 | 75 | 180 | 0.0 | 0.0 | 0.00 | 0.00 | 0.63 | 90 | 1019.4 |
| 20260902204004 | 75 | 180 | 0.0 | 0.0 | 0.00 | 0.00 | 0.63 | 90 | 1019.8 |
| 20260902202004 | 75 | 179 | 0.0 | 0.9 | 0.00 | 0.00 | 0.63 | 90 | 1019.2 |
| 20260902201005 | 75 | 180 | 0.9 | 1.7 | 0.00 | 0.00 | 0.63 | 90 | 1018.8 |
| 20260902200005 | 75 | 94 | 0.0 | 0.9 | 0.00 | 0.00 | 0.63 | 90 | 1019.1 |
| 20260902195004 | 74 | 93 | 0.0 | 0.9 | 0.00 | 0.00 | 0.63 | 90 | 1018.9 |
| 20260902194004 | 74 | 93 | 0.0 | 0.9 | 0.00 | 0.00 | 0.63 | 90 | 1019.1 |
| 20260902193005 | 74 | 92 | 0.0 | 0.9 | 0.00 | 0.00 | 0.63 | 90 | 1019.2 |
| 20260902192004 | 74 | 92 | 0.0 | 0.9 | 0.00 | 0.00 | 0.63 | 90 | 1019.1 |
| 20260902185005 | 73 | 92 | 0.0 | 1.7 | 0.00 | 0.00 | 0.63 | 90 | 1019.0 |
| 20260902184005 | 73 | 91 | 0.9 | 1.7 | 0.00 | 0.00 | 0.63 | 89 | 1018.8 |
| 20260902183004 | 73 | 90 | 0.9 | 4.3 | 0.00 | 0.00 | 0.62 | 89 | 1018.8 |
| 20260902182004 | 73 | 108 | 0.0 | 3.5 | 0.00 | 0.00 | 0.61 | 89 | 1019.8 |
| 20260902181004 | 74 | 64 | 0.0 | 1.7 | 0.00 | 0.00 | 0.59 | 89 | 1020.2 |
| 20260902180006 | 74 | 123 | 0.0 | 1.7 | 0.00 | 0.00 | 0.56 | 89 | 1021.0 |
| 20260902175005 | 74 | 96 | 3.5 | 6.1 | 0.00 | 0.00 | 0.54 | 89 | 1021.6 |
| 20260902174005 | 75 | 207 | 0.0 | 1.7 | 0.00 | 0.00 | 0.09 | 90 | 1022.5 |
| 20260902173005 | 75 | 113 | 0.0 | 0.0 | 0.00 | 0.00 | 0.03 | 90 | 1021.1 |
| 20260902172004 | 75 | 113 | 0.0 | 0.0 | 0.00 | 0.00 | 0.03 | 90 | 1020.9 |
| 20260902171004 | 75 | 113 | 0.0 | 0.0 | 0.00 | 0.00 | 0.03 | 90 | 1021.1 |
| 20260902170005 | 75 | 113 | 0.0 | 0.0 | 0.00 | 0.00 | 0.03 | 90 | 1021.2 |
| 20260902164005 | 74 | 113 | 0.0 | 0.0 | 0.00 | 0.00 | 0.03 | 90 | 1020.9 |